Location: Dehesa de la Cepeda
(40.6574°N, 4.3013°W)
Time: 00:45:02
(UTC+00:00)

Cosmos 1315 Rocket - Visible Passes

Search period start: 24 October 2020 00:00
Search period end: 03 November 2020 00:00
Orbit: 529 x 568 km, 81.2° (Epoch: 23 October)

Date Brightness Start Highest point End Pass type
(mag) Time Alt. Az. Time Alt. Az. Time Alt. Az.
24 Oct 5.4 05:44:37 10° NNE 05:48:00 24° ENE 05:51:21 10° SE visible
25 Oct 5.2 05:39:49 10° NNE 05:43:19 26° ENE 05:46:49 10° SE visible
25 Oct 4.6 19:35:15 10° SSW 19:36:56 24° SSW 19:36:56 24° SSW visible
26 Oct 5.0 05:35:02 10° NNE 05:38:39 29° ENE 05:42:15 10° SE visible
26 Oct 3.5 19:30:35 10° SSW 19:34:26 53° WNW 19:34:30 53° WNW visible
27 Oct 4.8 05:30:15 10° N 05:33:58 32° ENE 05:37:41 10° SE visible
27 Oct 4.7 17:52:29 10° ESE 17:53:42 11° E 17:54:55 10° ENE visible
27 Oct 3.7 19:25:56 10° SSW 19:29:44 47° WNW 19:32:10 20° N visible
28 Oct 4.6 05:25:29 10° N 05:29:17 35° ENE 05:33:05 10° SE visible
28 Oct 4.6 17:47:15 10° ESE 17:48:57 12° E 17:50:40 10° ENE visible
28 Oct 3.9 19:21:17 10° SSW 19:25:03 43° WNW 19:28:52 10° N visible
29 Oct 4.4 05:20:43 10° N 05:24:36 39° ENE 05:28:28 10° SE visible
29 Oct 4.2 19:16:39 10° SW 19:20:21 38° WNW 19:24:08 10° N visible
30 Oct 4.1 05:15:58 10° N 05:19:55 43° ENE 05:23:51 10° SSE visible
30 Oct 4.4 19:12:01 10° SW 19:15:40 35° WNW 19:19:22 10° N visible
31 Oct 3.9 05:11:13 10° N 05:15:14 47° ENE 05:19:13 10° SSE visible
31 Oct 4.6 19:07:25 10° SW 19:10:58 31° WNW 19:14:36 10° N visible
01 Nov 3.7 05:06:29 10° N 05:10:32 53° ENE 05:14:35 10° SSE visible
01 Nov 4.8 19:02:49 10° SW 19:06:17 29° WNW 19:09:49 10° NNW visible
02 Nov 3.4 05:01:45 10° N 05:05:50 59° ENE 05:09:54 10° SSE visible
02 Nov 5.0 18:58:14 10° SW 19:01:36 26° WNW 19:05:02 10° NNW visible
